Location: Newark
(42.8481°N, 0.4872°E)
Time: 18:17:29
(UTC+00:00)

Vanguard 1 - Pass Details

Date: 30 October 2020
Orbit: 650 x 3833 km, 34.2° (Epoch: 23 November)

Event Time Altitude Azimuth Distance (km) Brightness Sun altitude
Rises 12:14:57 0° 236° (SW) 7,138 15.0 32.6°
Reaches altitude 10° 12:19:23 10° 233° (SW) 6,401 15.0 32.5°
Maximum altitude 12:41:06 59° 161° (SSE) 4,183 14.3 31.5°
Drops below altitude 10° 13:01:20 10° 89° (E) 6,043 13.9 30.3°
Sets 13:05:22 0° 86° (E) 6,741 14.1 30.0°
